Weather History for Athens, OH

Change the Weather History Date:

Friday, February 1, 2013

  Actual Average (KPKB) Record (KPKB)
Temperature  
Mean Temperature 15 °F 32 °F  
Max Temperature 22 °F 41 °F 69 °F (2002)
Min Temperature 8 °F 24 °F -8 °F (1899)
Degree Days  
Heating Degree Days 50 33  
Since 1 July heating degree days 2978  
Moisture  
Dew Point 4 °F    
Average Humidity 64    
Maximum Humidity 89    
Minimum Humidity 52    
Precipitation  
Precipitation 0.00 in 0.10 in 1.20 in (2008)
Month to date precipitation 0.10  
Year to date precipitation 3.05  
Sea Level Pressure  
Sea Level Pressure 30.27 in    
Wind  
Wind Speed 12 mph (WSW)    
Max Wind Speed 22 mph    
Max Gust Speed 32 mph    
Visibility 9 miles    
Events Snow    
T = Trace of Precipitation, MM = Missing Value Source: NWS Daily Summary

Daily Weather History Graph

Daily Weather History Graph

Search for Another Location

Airport:

Trip Planner

Search our weather history database for the weather conditions in past years. The results will help you decide how hot, cold, wet, or windy it might be!

Date:

Astronomy

Feb. 01, 2013 Rise Set
Actual Time 7:35 AM EST 5:50 PM EST
Civil Twilight 7:07 AM EST 6:18 PM EST
Nautical Twilight 6:35 AM EST 6:50 PM EST
Astronomical Twilight 6:03 AM EST 7:21 PM EST
Moon 11:53 PM EST (2/1) 10:10 AM EST (2/1)
Length of Visible Light 11h 10m
Length of Day
10h 14m
Waning Gibbous, 70% of the Moon is Illuminated
Feb 1
Waning Gibbous
Feb 3
Last Quarter
Feb 10
New
Feb 17
First Quarter
Feb 25
Full

Hourly Weather History & Observations

Time (EST) Temp. Windchill Dew Point Humidity Pressure Visibility Wind Dir Wind Speed Gust Speed Precip Events Conditions
12:15 AM 22.8 °F 12.2 °F 18.7 °F 84% 29.91 in 2.0 mi WNW 10.4 mph 18.4 mph N/A Snow Light Snow
12:35 AM 22.5 °F 11.1 °F 19.2 °F 87% 29.91 in 2.5 mi WNW 11.5 mph - N/A Snow Light Snow
12:55 AM 22.1 °F 10.6 °F 19.4 °F 89% 29.92 in 1.8 mi WNW 11.5 mph 16.1 mph N/A Snow Light Snow
1:15 AM 21.2 °F 7.8 °F 14.9 °F 77% 29.93 in 5.0 mi WNW 15.0 mph 27.6 mph N/A Snow Light Snow
1:35 AM 20.3 °F 4.8 °F 14.7 °F 79% 29.95 in 3.0 mi WNW 19.6 mph 28.8 mph N/A Snow Light Snow
1:55 AM 18.3 °F 3.1 °F 13.5 °F 81% 29.98 in 2.0 mi NW 17.3 mph 24.2 mph N/A Snow Light Snow
2:15 AM 16.9 °F 1.7 °F 11.1 °F 78% 30.00 in 2.5 mi WNW 16.1 mph 31.1 mph N/A Snow Light Snow
2:35 AM 16.3 °F 0.5 °F 7.9 °F 69% 30.02 in 10.0 mi WNW 17.3 mph 29.9 mph N/A   Scattered Clouds
3:15 AM 15.8 °F 0.3 °F 5.0 °F 62% 30.06 in 10.0 mi West 16.1 mph 25.3 mph N/A   Overcast
3:35 AM 15.3 °F -0.9 °F 4.3 °F 62% 30.07 in 10.0 mi WNW 17.3 mph 26.5 mph N/A   Mostly Cloudy
3:55 AM 14.7 °F 0.7 °F 4.1 °F 63% 30.09 in 10.0 mi West 12.7 mph 25.3 mph N/A   Mostly Cloudy
4:15 AM 14.5 °F -1.3 °F 5.0 °F 66% 30.11 in 7.0 mi West 16.1 mph 21.9 mph N/A   Mostly Cloudy
4:35 AM 13.6 °F -3.5 °F 5.4 °F 70% 30.12 in 7.0 mi West 18.4 mph 26.5 mph N/A Snow Light Snow
4:55 AM 12.9 °F -2.8 °F 2.3 °F 63% 30.14 in 10.0 mi WNW 15.0 mph 31.1 mph N/A   Overcast
5:15 AM 12.2 °F -4.8 °F 1.2 °F 61% 30.16 in 7.0 mi West 17.3 mph 32.2 mph N/A   Mostly Cloudy
5:35 AM 12.0 °F -5.1 °F 1.6 °F 63% 30.17 in 10.0 mi West 17.3 mph 26.5 mph N/A   Scattered Clouds
5:55 AM 11.7 °F -7.4 °F 2.1 °F 66% 30.18 in 10.0 mi West 21.9 mph 26.5 mph N/A   Mostly Cloudy
6:15 AM 11.1 °F -5.1 °F 1.0 °F 64% 30.20 in 10.0 mi West 15.0 mph 24.2 mph N/A   Scattered Clouds
6:35 AM 11.1 °F -6.2 °F 1.4 °F 65% 30.21 in 10.0 mi West 17.3 mph 23.0 mph N/A   Mostly Cloudy
6:55 AM 10.4 °F -7.2 °F 1.2 °F 66% 30.23 in 10.0 mi West 17.3 mph 21.9 mph N/A   Overcast
7:15 AM 9.5 °F -8.8 °F 0.3 °F 66% 30.25 in 10.0 mi West 18.4 mph 21.9 mph N/A   Mostly Cloudy
7:35 AM 9.1 °F -7.0 °F -0.4 °F 65% 30.26 in 10.0 mi West 13.8 mph 20.7 mph N/A   Scattered Clouds
7:55 AM 8.8 °F -8.1 °F -0.6 °F 66% 30.27 in 10.0 mi West 15.0 mph 18.4 mph N/A   Clear
8:15 AM 9.1 °F -5.6 °F -0.4 °F 65% 30.29 in 10.0 mi West 11.5 mph 16.1 mph N/A   Clear
8:35 AM 9.5 °F -5.9 °F -0.4 °F 64% 30.29 in 10.0 mi West 12.7 mph 19.6 mph N/A   Clear
8:55 AM 10.0 °F -3.7 °F -0.6 °F 62% 30.30 in 10.0 mi West 10.4 mph 19.6 mph N/A   Clear
9:15 AM 10.4 °F -7.7 °F -0.9 °F 60% 30.31 in 10.0 mi West 18.4 mph 23.0 mph N/A   Clear
9:35 AM 11.3 °F -2.9 °F -0.2 °F 60% 30.32 in 10.0 mi West 11.5 mph - N/A   Scattered Clouds
9:55 AM 11.1 °F -3.9 °F -0.9 °F 58% 30.33 in 10.0 mi West 12.7 mph 17.3 mph N/A   Clear
10:15 AM 11.8 °F -2.3 °F -1.1 °F 56% 30.33 in 10.0 mi West 11.5 mph - N/A   Clear
10:35 AM 12.4 °F -2.9 °F -0.6 °F 56% 30.34 in 10.0 mi West 13.8 mph 21.9 mph N/A   Clear
10:55 AM 13.1 °F -1.4 °F -0.6 °F 54% 30.34 in 10.0 mi West 12.7 mph 17.3 mph N/A   Clear
11:15 AM 13.8 °F 1.0 °F -0.0 °F 54% 30.34 in 10.0 mi WSW 10.4 mph - N/A   Clear
11:35 AM 14.5 °F 0.5 °F 0.1 °F 53% 30.35 in 10.0 mi WSW 12.7 mph - N/A   Clear
11:55 AM 15.3 °F 2.8 °F 1.2 °F 54% 30.35 in 10.0 mi SW 10.4 mph - N/A   Clear
12:15 PM 15.8 °F 2.7 °F 1.6 °F 54% 30.35 in 10.0 mi SW 11.5 mph - N/A   Scattered Clouds
12:35 PM 16.2 °F 7.6 °F 1.4 °F 52% 30.36 in 10.0 mi West 5.8 mph 9.2 mph N/A   Scattered Clouds
12:55 PM 16.5 °F 6.0 °F 1.8 °F 52% 30.35 in 10.0 mi West 8.1 mph 18.4 mph N/A   Scattered Clouds
1:15 PM 17.2 °F 4.5 °F 2.3 °F 52% 30.35 in 10.0 mi SW 11.5 mph 18.4 mph N/A   Mostly Cloudy
1:35 PM 16.0 °F 2.3 °F 1.8 °F 54% 30.35 in 10.0 mi West 12.7 mph 16.1 mph N/A   Scattered Clouds
1:55 PM 16.7 °F 2.0 °F 1.8 °F 52% 30.35 in 10.0 mi WSW 15.0 mph 18.4 mph N/A   Scattered Clouds
2:15 PM 16.7 °F 3.8 °F 2.1 °F 53% 30.35 in 10.0 mi WSW 11.5 mph 18.4 mph N/A   Mostly Cloudy
2:35 PM 16.9 °F 4.8 °F 3.0 °F 55% 30.35 in 10.0 mi WSW 10.4 mph - N/A   Overcast
2:55 PM 16.7 °F 4.5 °F 2.7 °F 54% 30.35 in 10.0 mi SW 10.4 mph - N/A   Overcast
3:15 PM 16.5 °F 6.0 °F 2.8 °F 55% 30.35 in 10.0 mi WSW 8.1 mph - N/A   Overcast
3:35 PM 16.5 °F 6.9 °F 2.8 °F 55% 30.35 in 10.0 mi SW 6.9 mph - N/A   Mostly Cloudy
3:55 PM 17.2 °F 6.0 °F 2.8 °F 53% 30.35 in 10.0 mi WSW 9.2 mph 12.7 mph N/A   Scattered Clouds
4:15 PM 16.7 °F 6.2 °F 2.7 °F 54% 30.36 in 10.0 mi WSW 8.1 mph 13.8 mph N/A   Scattered Clouds
4:35 PM 16.7 °F 3.8 °F 2.8 °F 55% 30.35 in 10.0 mi WSW 11.5 mph - N/A   Mostly Cloudy
4:55 PM 16.2 °F 5.5 °F 3.0 °F 56% 30.35 in 10.0 mi WSW 8.1 mph - N/A   Scattered Clouds
5:15 PM 16.5 °F 4.3 °F 3.7 °F 57% 30.35 in 10.0 mi WSW 10.4 mph - N/A   Overcast
5:35 PM 16.2 °F 6.5 °F 3.4 °F 57% 30.35 in 10.0 mi WSW 6.9 mph - N/A   Overcast
5:55 PM 15.3 °F 7.9 °F 3.2 °F 59% 30.36 in 10.0 mi WSW 4.6 mph - N/A   Mostly Cloudy
6:15 PM 13.8 °F 6.2 °F 2.7 °F 61% 30.36 in 10.0 mi WSW 4.6 mph - N/A   Scattered Clouds
6:35 PM 13.8 °F 6.2 °F 3.0 °F 62% 30.36 in 10.0 mi SW 4.6 mph - N/A   Clear
6:55 PM 14.0 °F - 3.2 °F 62% 30.37 in 10.0 mi Calm Calm - N/A   Clear
7:15 PM 13.3 °F 7.3 °F 3.6 °F 65% 30.37 in 10.0 mi SW 3.5 mph - N/A   Scattered Clouds
7:35 PM 11.1 °F - 4.1 °F 73% 30.37 in 10.0 mi Calm Calm - N/A   Clear
7:55 PM 11.3 °F - 4.5 °F 74% 30.37 in 10.0 mi Calm Calm - N/A   Clear
8:15 PM 10.6 °F - 4.1 °F 75% 30.38 in 10.0 mi Calm Calm - N/A   Clear
8:35 PM 10.4 °F - 4.1 °F 76% 30.38 in 10.0 mi Calm Calm - N/A   Clear
8:55 PM 10.9 °F - 3.9 °F 73% 30.38 in 10.0 mi Calm Calm - N/A   Clear
9:15 PM 12.4 °F 6.3 °F 3.6 °F 68% 30.37 in 10.0 mi SSW 3.5 mph - N/A   Clear
9:35 PM 12.2 °F 6.1 °F 3.6 °F 68% 30.36 in 10.0 mi SSW 3.5 mph - N/A   Clear
9:55 PM 11.3 °F 5.1 °F 3.9 °F 72% 30.37 in 10.0 mi South 3.5 mph - N/A   Clear
10:15 PM 11.3 °F 5.1 °F 4.1 °F 73% 30.36 in 10.0 mi SSW 3.5 mph - N/A   Clear
10:35 PM 11.3 °F - 3.7 °F 72% 30.36 in 10.0 mi Calm Calm - N/A   Clear
10:55 PM 11.3 °F 5.1 °F 3.9 °F 72% 30.36 in 10.0 mi SSW 3.5 mph - N/A   Clear
11:15 PM 10.4 °F 4.0 °F 3.7 °F 74% 30.35 in 10.0 mi SSW 3.5 mph - N/A   Clear
11:35 PM 11.3 °F 5.1 °F 3.7 °F 72% 30.34 in 10.0 mi SSW 3.5 mph - N/A   Clear
11:55 PM 11.3 °F 5.1 °F 3.7 °F 72% 30.34 in 10.0 mi SSW 3.5 mph - N/A   Clear